Flag for Germany Weather past 2 weeks in Erftstadt, North Rhine-Westphalia, Germany

Now
61 °F

Partly sunny.


Feels Like: 61 °F
Forecast: 45 / 58 °F
Wind: 10 mph from Northwest

Location: Noervenich

Current Time: Sep 21, 2014 at 4:38:39 PM

Latest Report: Sep 21, 2014 at 3:20 PM


Visibility: N/A

Pressure: 30.04 "Hg

Humidity: 77%

Dew point: 54 °F

Location of ErftstadtLocation

Historic Weather in Erftstadt — Graph

°F

Erftstadt temperature yesterday

Maximum temperature yesterday: 75 °F (at 3:20 PM)
Minimum temperature yesterday: 59 °F (at 3:20 AM)
Average temperature yesterday: 64 °F

Past Weeks' High & Low Weather Summary

 TemperatureHumidityPressure
High77 °F (Sep 19, 2:20 PM)100% (Sep 8, 8:20 AM)30.24 "Hg (Sep 8, 8:20 AM)
Low46 °F (Sep 12, 6:20 AM)50% (Sep 17, 3:20 PM)29.83 "Hg (Sep 18, 4:20 AM)
Average62 °F82%30.03 "Hg
* Reported Sep 6 3:20 PM — Sep 21 3:20 PM, Erftstadt, Weather by CustomWeather, © 2014

Note: Actual official high and low records may vary slightly from our data, if they occured in-between our weather recording intervals... More about our weather records

Advertising

Erftstadt weather history for previous 24 hours

 ConditionsComfort  
Time TempWeatherWind HumidityBarometerVisibility
3:20 PM
Sep 21
61 °FPartly sunny.10 mph77%30.04 "HgN/A
2:20 PM63 °FPartly sunny.8 mph77%30.04 "HgN/A
1:20 PM61 °FBroken clouds.8 mph88%30.04 "HgN/A
12:20 PM61 °FLight rain. Partly sunny.9 mph94%30.04 "Hg6 mi
11:20 AM61 °FCool.7 mph94%30.01 "Hg3 mi
10:20 AM61 °FCool.5 mph94%30.01 "Hg1 mi
9:20 AM61 °FCool.5 mph94%29.98 "Hg2 mi
8:20 AM61 °FCool.3 mph94%29.98 "Hg2 mi
7:20 AM61 °FCool.3 mph94%29.98 "Hg2 mi
6:20 AM61 °FCool.5 mph100%29.98 "Hg1 mi
5:20 AM61 °FFog.3 mph100%29.98 "Hg2 mi
4:20 AM61 °FPartly cloudy.5 mph94%29.98 "Hg5 mi
3:20 AM59 °FPartly cloudy.1 mph100%29.98 "Hg5 mi
2:20 AM61 °FSprinkles. Passing clouds.2 mph94%29.98 "Hg4 mi
1:20 AM61 °FSprinkles. Partly cloudy.6 mph94%29.98 "Hg3 mi
12:49 AM61 °FSprinkles. Partly cloudy.7 mph94%29.98 "Hg3 mi
12:20 AM61 °FSprinkles. Partly cloudy.12 mph94%29.98 "Hg3 mi
11:20 PM
Sep 20
64 °FPartly cloudy.2 mph88%29.98 "Hg5 mi
10:20 PM63 °FPartly cloudy.2 mph94%29.98 "Hg5 mi
9:20 PM63 °FPartly cloudy.2 mph94%29.98 "HgN/A
8:20 PM63 °FBroken clouds.No wind94%29.95 "HgN/A
7:20 PM64 °FMild.3 mph88%29.95 "HgN/A
Weather by CustomWeather, © 2014

See weather overviewHow to use our weather pages